Probability
0 0 0 0 0 0 0 0 0 0 0 0 0 0 0 0 0 0 0 0 0 0 0 0 0 0 0 0 0 0 0 0 0 0 0 0 0 0 0 0 0 0 0 0
0 0 0 0 0 0 0 0 0 0 0 0 0 0 0 0 0 0 0 0 0 0 0 0 0 0 0 0 0 0 0 0 0 0 0 0 0 0 0 0 0 0 0 0
0 0 0 0 0 0 0 0 0 0 0 0 0 0 0 0 0 0 0 0 0 0 0 0 0 0 0 0 0 0 0 0 0 0 0 0 0 0 0 0 0 0 0 0
0 0 0 0 0 0 0 0 0 0 0 0 0 0 0 0 0 0 0 0 0 0 0 0 0 0 0 0 0 0 0 0 0 0 0 0 0 0 0 0 0 0 0 0
0 0 0 0 0 0 0 0 0 0 0 0 0 0 0 0 0 0 0 0 0 0 0 0 0 0 0 0 0 0 0 0 0 0 0 0 0 0 0 0 0 0 0 0
0 0 0 0 0 0 0 0 0 0 0 0 0 0 0 0 0 0 0 0 0 0 0 0 0 0 0 0 0 0 0 0 0 0 0 0 0 0 0 0 0 0 0 0
0 0 0 0 0 0 0 0 0 0 0 0 0 0 0 0 0 0 0 0 0 0 0 0 0 0 0 0 0 0 0 0 0 0 0 0 0 0 0 0 0 0 0 0
0 0 0 0 0 0 0 0 0 0 0 0 0 0 0 0 0 0 0 0 0 0 0 0 0 0 0 0 0 0 0 0 0 0 0 0 0 0 0 0 0 0 0 0
0 0 0 0 0 0 0 0 0 0 0 0 0 0 0 0 0 0 0 0 0 0 0 0 0 0 0 0 0 0 0 0 0 0 0 0 0 0 0 0 0 0 0 0
0 0 0 0 0 0 0 0 0 0 0 0 0 0 0 0 0 0 0 0 0 0 0 0 0 0 0 0 0 0 0 0 0 0 0 0 0 0 0 0 0 0 0 0
0 0 0 0 0 0 0 0 0 0 0 0 0 0 0 0 0 0 0 0 0 0 0 0 0 0 0 0 0 0 0 0 0 0 0 0 0 0 0 0 0 0 0 0
0 0 0 0 0 0 0 0 0 0 0 0 0 0 0 0 0 0 0 0 0 0 0 0 0 0 0 0 0 0 0 0 0 0 0 0 0 0 0 0 0 0 0 0
0 0 0 0 0 0 0 0 0 0 0 0 0 0 0 0 0 0 0 0 0 0 0 0 0 0 0 0 0 0 0 0 0 0 0 0 0 0 0 0 0 0 0 0
0 0 0 0 0 0 0 0 0 0 0 0 0 0 0 0 0 0 0 0 0 0 0 0 0 0 0 0 0 0 0 0 0 0 0 0 0 0 0 0 0 0 0 0
0 0 0 0 0 0 0 0 0 0 0 0 0 0 0 0 0 0 0 0 0 0 0 0 0 0 0 0 0 0 0 0 0 0 0 0 0 0 0 0 0 0 0 0
0 0 0 0 0 0 0 0 0 0 0 0 0 0 0 0 0 0 0 0 0 0 0 0 0 0 0 0 0 0 0 0 0 0 0 0 0 0 0 0 0 0 0 0
0 0 0 0 0 0 0 0 0 0 0 0 0 0 0 0 0 0 0 0 0 0 0 0 0 0 0 0 0 0 0 0 0 0 0 0 0 0 0 0 0 0 0 0
0 0 0 0 0 0 0 0 0 0 0 0 0 0 0 0 0 0 0 0 0 0 0 0 0 0 0 0 0 0 0 0 0 0 0 0 0 0 0 0 0 0 0 0
0 0 0 0 0 0 0 0 0 0 0 0 0 0 0 0 0 0 0 0 0 0 0 0 0 0 0 0 0 0 0 0 0 0 0 0 0 0 0 0 0 0 0 0
0 0 0 0 0 0 0 0 0 0 0 0 0 0 0 0 0 0 0 0 0 0 0 0 0 0 0 0 0 0 0 0 0 0 0 0 0 0 0 0 0 0 0 0
0 0 0 0 0 0 0 0 0 0 0 0 0 0 0 0 0 0 0 0 0 0 0 0 0 0 0 0 0 0 0 0 0 0 0 0 0 0 0 0 0 0 0 0
0 0 0 0 0 0 0 0 0 0 0 0 0 0 0 0 0 0 0 0 0 0 0 0 0 0 0 0 0 0 0 0 0 0 0 0 0 0 0 0 0 0 0 0
0 0 0 0 0 0 0 0 0 0 0 0 0 0 0 0 0 0 0 0 0 0 0 0 0 0 0 0 0 0 0 0 0 0 0 0 0 0 0 0 0 0 0 0
0 0 0 0 0 0 0 0 0 0 0 0 0 0 0 0 0 0 0 0 0 0 0 0 0 0 0 0 0 0 0 0 0 0 0 0 0 0 0 0 0 0 0 0
0 0 0 0 0 0 0 0 0 0 0 0 0 0 0 0 0 0 0 0 0 0 0 0 0 0 0 0 0 0 0 0 0 0 0 0 0 0 0 0 0 0 0 0
0 0 0 0 0 0 0 0 0 0 0 0 0 0 0 0 0 0 0 0 0 0 0 0 0 0 0 0 0 0 0 0 0 0 0 0 0 0 0 0 0 0 0 0
0 0 0 0 0 0 0 0 0 0 0 0 0 0 0 0 0 0 0 0 0 0 0 0 0 0 0 0 0 0 0 0 0 0 0 0 0 0 0 0 0 0 0 0
Wind_Speed
5 4 3 6 7 7 8 8 9 9 9 10 7 6 5 3 2 2 2 2 2 2 2 2 2 2 2 2 2 2 2 3 3 3 3 2 2 3 3 3 3 3 3 3
4 4 5 7 8 9 10 9 10 9 12 9 6 4 4 4 4 4 4 4 3 3 3 3 3 3 2 2 2 2 2 3 3 3 3 3 3 3 3 3 3 3 3 3
4 4 3 8 10 11 8 8 8 11 11 5 4 5 6 6 5 6 6 5 4 4 4 4 4 3 3 3 2 2 3 4 3 3 3 3 3 3 3 3 3 3 3 4
1 1 7 9 3 7 8 9 9 8 6 6 7 6 6 5 6 6 5 5 5 4 4 3 3 3 3 2 2 3 3 4 4 3 4 3 3 3 4 3 3 4 4 4
2 3 9 7 4 6 7 8 8 10 8 5 3 1 4 4 5 5 5 5 5 4 4 3 3 2 2 2 3 3 4 4 4 4 4 4 4 4 4 3 3 4 4 4
3 4 8 7 3 3 3 6 5 7 8 5 2 2 6 4 3 3 3 3 3 3 2 3 3 2 2 3 3 4 4 4 4 4 4 4 4 4 4 3 4 4 4 4
6 6 10 7 3 4 4 8 4 6 6 6 7 7 5 3 3 3 3 3 3 3 3 4 3 2 3 4 5 5 4 4 4 4 4 4 4 4 3 3 3 4 4 4
5 6 11 4 6 7 8 3 2 4 5 5 6 5 4 4 4 3 3 3 3 3 3 3 3 3 4 5 5 3 3 4 4 4 4 3 3 3 3 3 3 4 4 4
10 10 5 5 7 6 3 3 3 4 4 4 4 5 5 4 4 4 4 4 3 3 4 4 3 3 5 5 4 3 3 4 4 4 3 3 3 3 3 3 3 3 3 3
6 9 7 6 5 4 4 5 5 4 4 4 5 5 5 4 4 4 4 4 3 3 4 4 4 4 5 5 4 3 4 4 3 3 3 3 3 3 3 3 3 3 3 4
7 7 5 6 8 7 6 5 4 4 4 5 5 5 5 5 5 4 4 3 3 4 5 6 5 5 4 4 4 3 4 4 3 3 3 3 3 3 4 4 5 4 4 4
10 8 6 7 6 5 5 6 5 4 4 3 5 5 5 5 4 4 4 4 4 4 5 5 5 5 4 4 4 4 4 3 3 2 2 2 3 3 5 6 8 8 8 7
9 6 6 6 4 4 5 5 5 5 5 4 4 4 4 4 4 4 4 4 5 5 5 5 5 5 5 4 4 4 4 4 3 3 3 3 3 3 4 5 7 7 7 8
6 3 5 5 5 5 5 4 3 3 3 4 4 3 3 3 3 4 5 5 4 4 5 4 5 6 5 4 4 4 4 4 4 3 3 3 3 3 3 4 4 4 5 7
7 7 7 4 3 3 3 3 2 3 3 3 3 3 3 4 5 5 4 4 3 4 4 4 5 6 4 3 4 4 3 3 3 3 3 3 3 3 3 4 3 3 3 4
4 4 4 4 5 4 3 3 4 4 4 4 3 4 4 4 5 4 4 3 3 4 5 5 6 5 3 3 3 3 3 5 4 3 3 3 3 3 3 3 3 3 3 3
5 5 5 5 6 5 5 5 5 5 4 4 5 4 3 3 3 3 3 3 4 5 5 5 5 4 3 3 3 3 2 3 5 3 2 3 2 3 3 3 3 3 3 4
8 7 7 6 6 6 6 5 4 4 4 4 3 2 3 3 4 4 3 3 3 4 4 4 4 3 3 3 3 2 2 2 2 2 2 2 2 2 2 3 3 3 3 3
5 5 5 5 5 5 5 4 4 4 3 3 3 3 4 3 3 3 2 2 3 4 4 3 4 2 2 3 2 2 2 2 2 2 2 3 3 2 2 2 3 3 3 3
4 3 3 3 3 3 3 3 3 3 3 3 3 2 2 3 2 2 2 3 4 4 3 3 3 2 2 3 3 2 2 2 2 2 2 2 2 2 2 3 3 3 3 3
3 3 3 3 2 2 3 3 3 3 3 3 3 3 3 3 2 2 2 3 4 3 3 4 2 2 2 2 3 2 2 2 2 2 2 2 2 2 2 3 3 3 3 3
2 2 2 2 2 2 2 2 2 2 2 2 2 2 2 2 2 2 3 3 3 4 2 2 2 2 3 2 1 1 2 2 2 2 2 2 2 2 2 2 3 3 3 3
2 2 2 2 2 2 1 1 2 2 3 3 3 3 3 2 2 2 3 3 2 3 2 2 3 3 3 1 1 1 1 2 2 2 2 2 2 2 2 3 3 3 3 3
2 2 2 2 2 2 1 2 1 1 2 2 3 3 2 1 2 2 2 3 4 3 2 3 4 3 2 0 0 1 1 2 2 2 2 2 2 2 2 2 3 3 3 3
2 2 2 3 2 2 2 1 1 0 1 1 1 2 2 2 2 2 1 2 3 3 2 3 4 3 1 1 1 1 1 2 2 2 2 2 2 2 2 2 3 3 3 3
2 2 2 2 2 2 2 2 1 1 1 1 1 1 1 1 1 1 1 1 2 2 1 1 2 2 1 1 1 1 1 2 2 2 2 2 2 2 2 3 3 3 3 3
1 1 1 1 1 2 2 2 2 2 1 1 1 1 1 0 0 0 1 1 1 1 1 1 1 1 1 1 1 2 2 2 2 2 2 2 2 2 3 3 3 3 3 3
Wind_Direction
244 247 231 235 236 220 215 214 218 240 245 257 254 254 256 254 246 238 239 245 241 250 268 279 288 292 290 291 296 303 305 299 289 293 284 280 279 272 268 265 258 243 240 246
264 254 249 262 248 232 235 234 237 255 264 261 254 246 247 242 231 235 240 240 241 246 252 258 262 266 272 282 288 289 283 283 288 295 293 281 277 276 273 266 260 250 244 242
257 283 310 268 234 217 218 217 207 231 247 254 250 237 231 231 232 235 237 235 237 239 237 243 248 252 256 267 275 278 278 282 286 287 286 278 279 275 270 263 258 253 250 244
231 38 243 245 225 200 215 235 222 233 245 237 240 242 232 221 221 229 226 230 239 241 245 247 249 256 264 269 271 269 275 278 278 278 282 278 272 267 266 261 256 253 255 249
173 236 271 279 235 191 202 254 223 224 240 245 253 300 271 234 216 218 221 227 231 230 233 243 252 255 262 275 272 266 268 271 273 271 275 273 271 271 271 264 263 256 252 246
175 209 247 251 230 183 136 275 233 207 219 225 170 234 260 244 235 244 239 231 231 228 226 236 245 237 244 261 264 264 268 270 269 265 267 265 264 268 271 265 261 263 259 249
202 230 259 251 208 133 176 245 237 202 209 201 201 221 242 237 241 239 237 239 233 228 234 241 243 234 246 256 258 262 271 275 271 266 263 260 263 264 266 269 266 263 263 260
182 216 251 211 151 190 221 240 219 208 208 210 231 245 246 241 241 241 244 247 236 235 251 255 246 233 248 256 259 264 269 274 275 273 271 270 265 269 264 260 259 261 265 268
197 217 239 188 204 225 216 225 231 218 222 214 228 239 245 243 237 239 239 243 239 231 250 263 254 233 242 256 258 258 266 271 276 279 277 273 263 265 266 254 253 259 259 265
244 256 251 245 248 251 235 237 242 229 222 211 225 236 242 244 245 244 245 239 235 232 247 262 258 247 243 251 246 238 253 262 267 271 278 277 270 259 254 251 250 254 254 260
247 263 278 254 234 238 242 244 244 241 225 215 216 234 236 242 247 247 252 250 234 232 244 256 260 259 253 247 234 237 249 253 262 262 261 268 270 258 257 248 249 251 244 244
227 222 212 244 237 221 228 238 232 229 242 232 216 229 236 244 245 244 247 247 246 247 252 258 259 260 258 246 228 230 244 248 250 256 261 266 275 286 282 277 282 277 273 266
231 230 225 251 251 220 220 232 228 220 222 233 235 228 230 242 245 242 246 246 245 248 253 257 259 262 260 249 230 226 234 243 247 250 254 264 271 279 292 299 298 298 292 285
232 221 244 242 239 233 228 227 218 226 234 228 230 232 231 242 250 247 248 250 250 254 258 257 258 262 260 245 232 231 232 243 246 241 246 254 260 265 271 280 291 297 298 298
230 219 226 235 236 236 220 202 206 228 232 239 233 234 234 238 247 251 253 256 257 259 262 260 260 265 261 239 231 227 228 233 235 236 241 249 258 267 271 272 277 288 293 298
229 231 228 228 234 229 209 207 216 232 230 234 238 244 244 244 250 255 255 242 241 256 261 261 263 266 257 240 232 230 233 250 252 242 240 247 254 262 270 275 281 285 283 284
206 225 221 227 230 227 220 218 220 226 228 232 237 243 246 248 251 253 256 252 247 254 258 257 263 267 253 240 225 229 233 248 257 254 242 243 249 254 260 265 267 271 275 282
218 223 218 217 219 221 225 223 221 221 226 232 234 225 223 223 234 247 256 264 272 276 268 263 266 265 250 243 228 221 223 231 235 235 239 242 245 244 250 262 265 270 279 286
219 219 217 218 217 210 215 218 221 221 219 212 213 222 228 231 237 248 251 250 263 276 280 275 280 271 255 253 253 215 216 227 238 241 242 257 264 249 248 257 264 269 274 279
215 211 204 209 211 205 211 213 208 211 211 200 207 219 232 242 240 243 243 249 251 256 269 279 277 265 259 257 259 219 218 226 234 242 245 245 250 253 253 256 259 263 268 273
206 197 190 192 205 210 207 201 196 208 208 193 199 216 229 241 230 223 238 267 275 269 272 281 279 268 263 259 254 221 216 227 237 242 243 249 253 254 257 260 262 265 267 271
196 186 191 192 190 216 224 201 193 194 193 203 215 217 219 238 242 247 247 251 270 285 284 271 270 272 274 269 242 228 230 233 238 242 244 250 252 255 262 266 268 270 267 265
188 183 185 195 199 212 218 203 192 186 197 206 208 212 220 228 221 232 272 275 275 285 290 276 282 286 285 277 234 239 249 246 240 239 242 245 246 248 255 262 266 270 271 270
173 176 182 175 152 157 198 229 210 207 211 217 215 211 208 229 259 251 257 285 290 289 290 296 302 302 308 356 246 249 254 257 251 241 237 242 246 250 254 260 267 270 270 272
174 172 163 159 173 204 209 188 162 191 200 237 242 230 219 211 230 260 272 283 291 302 310 307 312 319 341 325 283 272 267 264 263 256 238 240 247 253 257 260 265 271 274 272
178 185 196 206 205 196 179 170 180 201 198 257 292 277 254 245 246 259 274 284 291 306 319 317 318 321 323 306 293 284 277 287 296 286 261 254 253 256 263 267 273 274 273 271
160 169 169 200 219 194 178 176 184 203 207 212 250 267 264 263 258 270 285 305 309 315 319 318 315 308 304 305 306 304 295 283 277 275 274 267 262 259 264 268 272 273 273 271